Theta_e
302 295 292 294 296 297 295 293 292 300 307 303 302 300 302 302 301 299 298 298 297 297 297 299 298 299 298 299 297 294 292 290 289 288 287 287 287 287 287 288 289 289 289 289
298 294 299 299 298 298 297 294 294 304 307 303 301 299 301 301 301 300 298 297 296 296 295 297 298 298 300 297 294 292 290 289 288 287 286 287 286 287 286 287 288 289 288 288
292 298 303 300 297 296 295 294 294 301 302 302 300 297 299 302 301 300 299 298 297 295 295 297 298 298 301 294 292 291 289 289 289 289 288 288 287 287 286 286 286 287 289 289
293 300 299 298 297 297 292 298 298 302 299 292 299 288 297 299 298 297 296 296 295 295 296 297 297 299 298 293 291 290 289 289 290 289 287 286 284 284 285 285 285 287 288 288
292 297 297 297 298 299 296 301 298 303 297 296 296 292 296 299 296 295 295 295 295 296 296 296 298 299 297 295 293 288 289 289 288 288 287 286 285 285 285 285 285 286 287 288
293 297 297 298 301 300 301 298 297 294 291 287 296 295 292 295 299 296 295 296 296 296 296 297 299 299 297 295 291 287 288 288 288 287 287 286 285 285 285 285 284 285 286 287
294 295 296 300 296 298 296 291 286 285 284 284 298 295 293 298 305 298 295 296 296 296 296 297 297 297 296 293 289 288 288 288 288 287 287 287 286 286 285 285 284 285 285 285
286 285 294 298 297 293 293 292 288 282 284 289 299 292 291 297 300 299 297 297 297 296 298 298 298 297 296 291 288 288 288 287 287 287 287 287 287 286 286 285 285 285 284 285
286 288 297 298 300 298 295 291 296 291 295 292 292 293 295 296 294 295 294 296 296 297 297 299 298 297 295 289 288 287 287 287 287 287 286 287 287 286 286 286 285 285 285 287
292 287 295 298 299 298 298 299 290 290 285 286 291 292 291 291 291 293 294 295 297 298 297 298 297 296 291 289 287 287 287 286 286 286 286 287 286 286 286 286 285 285 284 284
294 290 291 297 294 294 294 294 296 294 292 288 288 291 300 294 294 293 295 297 297 295 296 298 295 292 289 287 286 286 286 286 286 286 286 286 286 286 286 285 285 285 284 285
295 292 287 290 298 300 298 295 296 290 290 294 293 291 301 297 297 296 295 297 295 297 298 296 291 289 287 286 286 286 286 286 286 286 286 286 286 286 285 285 285 285 284 285
295 289 285 287 294 296 295 297 297 297 296 293 289 290 299 298 297 297 297 297 297 298 295 292 288 287 287 286 286 286 286 285 286 286 285 285 285 285 284 284 285 285 284 285
300 292 289 284 292 295 293 295 297 297 291 293 293 291 294 296 296 298 297 296 294 294 292 288 287 286 286 287 287 286 286 286 286 286 285 284 284 284 284 284 284 284 285 284
296 290 295 295 297 298 295 296 296 296 297 293 294 293 295 297 298 299 296 295 294 294 292 288 286 285 285 285 286 286 286 286 286 286 285 284 285 285 285 284 284 283 283 282
297 291 296 294 299 299 295 296 298 300 299 298 297 294 300 301 300 295 295 295 294 294 292 288 287 287 286 286 286 286 286 286 286 286 285 286 286 285 284 283 282 282 281 280
297 295 293 290 296 297 292 296 299 300 301 298 293 296 301 297 296 295 295 296 295 292 289 287 287 286 286 286 286 285 286 287 286 285 286 286 286 285 283 282 281 279 278 278
298 297 295 290 295 285 296 302 304 301 301 302 300 299 298 297 298 298 298 296 294 289 288 287 286 286 285 285 285 285 286 286 286 285 286 286 285 283 281 279 278 278 277 277
302 298 292 288 290 295 297 301 301 299 296 301 299 298 298 298 297 295 298 297 291 289 288 286 286 285 285 285 286 286 286 286 286 285 285 285 284 282 280 278 277 277 277 276
303 301 295 290 288 285 295 302 306 303 291 301 299 298 296 297 289 290 295 291 289 289 287 286 285 285 285 285 286 285 285 285 285 285 285 285 283 282 280 279 278 277 276 277
295 296 292 290 287 293 301 305 305 292 293 301 300 299 297 295 294 294 291 289 289 288 287 287 286 285 284 286 286 285 284 284 286 287 287 285 283 281 281 279 279 278 277 277
293 293 293 292 287 287 305 304 297 299 303 302 301 300 298 293 292 290 289 288 287 287 287 286 284 284 285 286 286 284 284 286 287 286 285 285 283 282 282 280 279 279 276 275
293 298 296 296 295 301 307 302 304 306 302 301 301 300 295 291 290 289 288 287 287 287 286 286 285 285 285 286 286 284 285 287 287 285 283 283 283 283 283 281 280 278 277 275
301 303 298 298 300 301 303 305 307 305 303 303 300 297 294 291 290 288 287 287 286 286 285 286 285 285 284 286 286 285 285 285 283 283 283 283 282 282 281 281 281 278 278 276
301 303 299 298 300 303 302 304 304 304 304 301 299 296 293 291 289 288 287 286 286 286 286 286 285 285 284 286 285 286 287 287 285 283 283 282 281 280 280 280 279 279 279 278
303 300 297 296 303 301 301 304 304 302 300 300 298 294 293 292 289 288 287 287 286 285 285 285 284 283 282 284 284 286 288 286 284 283 281 280 279 279 279 278 278 283 283 284
Wind_Speed
3 3 9 11 9 5 3 3 4 7 7 10 15 16 12 10 10 10 8 7 7 6 4 2 5 2 3 7 7 7 7 5 5 5 4 4 3 3 3 4 6 7 7 6
1 13 12 7 5 7 7 7 4 8 3 12 14 12 11 9 5 9 10 9 8 6 5 3 2 0 7 4 7 7 6 6 5 3 2 1 1 2 2 3 6 6 6 5
9 5 10 8 8 8 9 8 9 8 10 13 18 5 5 4 7 8 7 7 9 9 7 4 3 5 5 4 7 6 5 5 4 4 3 3 3 3 4 3 3 4 6 5
7 10 10 6 11 7 10 8 7 17 7 6 9 4 8 8 9 9 9 9 8 9 6 4 4 6 4 5 6 6 5 4 4 5 5 4 2 2 2 3 3 5 6 6
13 9 9 12 19 6 12 9 7 13 7 8 4 5 2 11 8 13 11 11 9 8 7 5 5 8 4 6 6 5 4 5 4 5 4 3 3 2 3 3 6 5 6 6
11 0 7 10 8 11 8 4 1 5 5 4 10 6 3 6 8 16 12 13 11 9 6 5 8 9 6 6 6 5 5 3 4 4 4 4 4 6 5 5 5 5 4 5
17 15 6 6 7 4 4 6 3 3 3 4 4 6 3 10 5 14 19 15 11 8 7 6 12 9 8 8 7 6 5 3 2 4 4 4 5 5 5 5 4 6 4 3
7 6 13 6 13 9 8 9 7 6 4 5 7 2 2 8 11 17 14 15 11 9 6 5 10 8 6 8 7 7 6 3 3 4 6 5 6 3 3 3 3 4 4 5
8 9 4 8 8 11 6 6 8 6 3 5 2 4 4 9 12 15 16 14 11 9 6 11 8 10 8 7 5 7 5 3 4 6 4 5 5 6 4 6 5 4 5 6
5 3 8 8 5 5 11 7 2 2 5 4 3 3 4 12 15 15 16 14 12 8 7 10 9 10 7 7 5 6 4 3 4 4 3 3 5 6 5 6 7 7 7 6
5 3 7 2 8 14 2 2 2 5 6 7 5 5 6 18 18 17 16 14 13 8 9 9 11 7 9 6 5 4 5 5 5 2 3 5 6 6 6 6 6 7 7 8
12 7 6 9 8 9 10 11 8 6 3 4 4 2 9 18 18 16 15 14 9 10 11 9 12 10 7 7 5 5 3 4 3 1 4 5 6 6 7 6 7 7 8 9
11 5 1 8 6 2 11 6 5 5 4 4 7 4 8 14 14 14 16 14 13 12 9 9 11 9 7 6 6 4 3 3 3 4 5 6 6 6 6 7 7 8 8 9
17 6 9 8 7 4 8 7 6 8 5 7 4 13 13 16 17 16 16 15 14 13 12 10 8 7 7 6 6 4 4 3 4 5 5 6 6 6 6 7 8 9 10 10
9 8 7 8 9 5 6 8 7 6 7 8 17 18 23 20 19 18 19 18 16 14 13 11 9 7 6 6 5 5 4 4 3 5 6 5 5 6 6 7 8 8 9 10
6 7 8 7 7 5 5 5 10 5 13 15 18 12 10 18 14 21 21 20 17 14 14 12 10 9 7 6 5 5 4 4 5 5 5 5 5 6 6 7 8 9 10 11
11 8 6 5 3 3 2 9 6 5 12 27 13 11 24 20 22 23 21 19 17 15 15 13 11 8 7 6 7 6 4 4 6 4 4 5 5 6 7 7 9 10 9 9
8 7 5 4 3 2 8 7 20 20 16 12 18 29 26 25 20 19 20 16 17 16 14 12 9 7 7 6 6 6 5 5 5 4 5 5 5 5 6 6 7 8 7 8
8 6 5 7 2 1 3 8 13 19 4 16 24 23 23 20 18 11 16 18 16 16 13 11 9 6 7 7 6 7 5 5 5 3 4 5 5 5 5 7 7 6 7 8
6 9 8 4 5 6 9 4 17 13 6 14 30 28 29 23 13 9 17 18 16 15 13 12 9 7 8 6 7 7 5 5 4 3 4 4 4 4 5 5 7 5 5 8
5 4 7 5 4 5 8 21 10 6 12 22 24 29 26 21 7 15 18 16 18 16 15 11 9 9 8 7 7 6 4 4 4 3 4 2 1 2 3 5 4 5 6 8
7 7 4 4 5 3 15 8 10 6 21 28 21 23 19 18 22 21 19 20 18 17 15 11 9 8 6 7 7 6 5 4 4 3 3 0 2 3 4 6 6 5 6 6
3 8 9 8 7 5 22 6 9 24 30 21 25 20 23 25 23 21 19 19 18 17 13 9 10 9 6 6 6 6 5 4 3 2 3 3 4 4 5 5 6 5 6 5
3 5 6 5 5 10 9 9 19 25 24 25 22 27 25 26 23 20 18 17 16 14 13 10 12 10 6 6 6 5 5 5 6 4 2 3 5 5 6 4 4 5 6 5
6 6 7 6 6 14 7 15 19 20 26 23 23 27 26 27 22 22 18 17 16 14 12 11 10 8 7 6 5 3 7 6 5 5 4 4 4 4 5 5 3 4 5 3
5 8 7 7 15 8 10 19 26 29 26 28 25 21 23 24 22 21 18 16 15 14 12 11 9 8 7 7 5 5 6 6 6 5 3 2 3 4 4 4 5 8 9 13
Wind_Direction
183 121 214 210 194 222 208 272 288 41 92 71 108 125 130 131 124 140 145 131 126 127 155 174 243 332 19 99 97 82 76 40 56 32 16 15 5 340 5 358 5 14 10 18
64 233 220 209 218 241 250 261 120 82 50 88 131 114 127 154 166 162 153 147 148 144 169 211 226 163 73 123 106 92 85 68 55 55 24 81 296 308 274 339 7 359 1 4
179 224 190 195 241 231 240 218 197 162 106 69 128 98 148 182 140 140 152 157 153 157 167 182 238 117 97 133 117 118 101 86 68 62 32 1 354 351 358 336 323 319 351 344
238 244 261 216 241 194 258 216 191 142 151 181 217 146 198 174 169 173 164 166 166 161 177 182 161 101 185 122 114 109 103 94 67 55 57 51 24 346 288 277 295 317 335 335
226 162 203 222 237 208 251 266 220 177 153 111 215 93 157 165 198 186 181 171 171 177 171 177 140 126 167 114 113 113 91 64 55 59 69 55 16 279 289 305 327 329 324 326
242 316 164 215 234 212 246 277 42 78 117 78 200 149 162 193 222 176 169 164 171 169 160 138 128 132 119 112 104 91 84 60 53 55 46 34 4 325 336 322 331 324 313 306
251 257 251 212 254 222 160 72 307 325 354 187 158 76 126 320 258 171 157 155 167 171 155 145 151 146 140 122 109 123 101 64 29 41 21 1 346 343 328 330 309 327 315 301
174 287 209 185 200 196 203 157 169 199 190 149 350 111 54 46 84 127 134 141 160 170 142 164 156 151 111 99 99 108 95 76 11 8 9 356 351 328 336 325 318 311 299 298
170 251 208 179 196 167 228 214 173 156 129 89 147 96 126 112 107 121 131 148 165 160 167 139 148 128 123 107 106 108 103 47 9 17 16 5 345 355 345 336 327 311 303 312
203 260 211 234 135 241 184 162 142 357 168 114 220 216 214 166 151 150 147 160 165 162 148 145 142 124 116 112 104 97 86 47 19 49 20 350 334 359 343 342 339 329 316 312
152 91 291 131 185 210 142 183 121 128 139 147 154 254 177 165 167 167 158 159 161 157 154 154 108 129 110 114 110 104 63 40 34 40 6 359 355 357 347 349 336 325 316 315
184 190 243 234 259 208 202 197 155 130 205 81 123 197 122 148 161 159 150 151 150 158 153 137 127 120 122 129 122 103 68 52 35 43 23 1 9 357 354 344 334 327 326 330
165 216 142 332 343 135 204 181 159 121 88 166 132 202 134 145 152 151 149 150 153 138 125 121 119 123 130 131 123 110 73 55 34 48 31 14 13 1 350 342 337 334 338 336
153 164 183 191 208 166 167 188 172 140 126 148 160 141 162 163 160 160 144 139 133 136 140 129 119 130 130 131 132 127 82 64 49 56 37 21 7 359 350 344 341 346 351 355
142 178 167 210 220 203 188 188 178 154 162 150 165 162 169 167 165 152 137 135 137 146 138 136 136 141 130 127 132 101 88 65 64 60 36 15 5 1 353 349 349 348 354 353
187 210 151 213 210 201 207 211 107 88 91 77 128 125 156 154 139 140 145 146 152 153 144 144 141 134 141 140 132 115 102 79 75 60 29 18 11 3 359 359 2 358 356 351
156 146 129 213 203 284 258 170 131 107 137 138 149 168 155 150 153 153 152 154 157 149 147 145 143 140 139 139 130 127 120 91 74 63 27 28 19 18 6 1 6 357 350 345
142 116 118 171 77 145 257 172 148 139 147 143 123 150 155 153 152 149 154 152 149 147 143 142 141 133 130 122 117 127 106 93 93 62 39 38 29 26 5 4 359 355 348 341
134 116 91 120 111 64 34 135 132 140 68 140 131 138 141 135 122 147 150 150 149 146 142 143 139 136 126 129 136 113 99 96 98 74 60 57 43 31 13 7 350 334 343 340
85 117 117 111 133 171 215 137 123 109 103 161 143 147 145 144 155 174 151 138 133 135 139 138 133 132 125 143 123 112 122 106 120 99 74 85 55 44 16 338 331 320 319 338
96 67 139 117 148 256 172 155 175 109 193 165 160 153 157 163 142 138 139 134 135 138 138 135 133 139 144 145 120 123 133 122 155 102 81 86 94 44 354 337 335 330 336 346
148 123 157 111 106 189 165 182 165 178 144 154 162 156 139 120 126 137 138 136 139 139 140 139 132 142 149 136 124 142 147 169 143 106 87 40 315 331 341 342 335 341 355 1
175 175 150 170 204 213 168 157 133 138 146 155 148 145 135 135 139 141 142 142 144 143 144 137 136 138 141 141 140 145 184 144 137 109 6 17 26 343 344 352 346 349 355 1
119 126 113 110 1 139 130 113 135 142 146 148 140 140 140 139 143 142 140 142 142 145 144 139 136 137 147 149 151 162 159 128 116 101 81 37 38 21 9 1 1 358 357 350
183 114 126 64 77 82 32 132 139 133 135 128 139 144 144 140 147 145 145 146 146 148 145 145 143 145 153 152 158 150 158 148 123 96 69 44 38 27 8 3 9 1 351 341
171 154 150 186 175 125 162 147 140 138 141 141 139 142 146 144 147 147 147 149 149 150 147 142 141 139 155 146 144 118 132 146 127 103 77 55 41 21 24 17 354 349 19 21